When you browse on this site, cookies collect data to enhance your experience and personalize the content and advertising you see.
Visit our Privacy Policy to learn more. By continuing to use the site, you agree to this use of cookies and data.
  • In Schweiz
  • Länderverzeichnis
  • Für 7 Tage
  • Wassertemperatur
  • Wetterkarte
  • Widgets
  • user-avatar
    Anmelden

    Stündliche Wetter Nice

    Heute, 28 Januar, Dienstag

    Zeit Temperatur Niederschläge Wind Luftdruck Luftfeuchtigkeit
    00:00 +10°C° 0.1 mm 4 m/S 758 mmHg 81%
    01:00 +8°C° 0 mm 4 m/S 757 mmHg 81%
    02:00 +8°C° 0 mm 4 m/S 757 mmHg 82%
    03:00 +7°C° 0 mm 5 m/S 756 mmHg 82%
    04:00 +7°C° 0 mm 5 m/S 756 mmHg 82%
    05:00 +8°C° 0 mm 6 m/S 755 mmHg 82%
    06:00 +8°C° 0 mm 6 m/S 755 mmHg 82%
    07:00 +8°C° 0.1 mm 7 m/S 755 mmHg 81%
    08:00 +9°C° 0.1 mm 7 m/S 755 mmHg 81%
    09:00 +10°C° 0.1 mm 8 m/S 755 mmHg 80%
    10:00 +11°C° 0 mm 9 m/S 755 mmHg 71%
    11:00 +12°C° 0 mm 10 m/S 754 mmHg 62%
    12:00 +13°C° 0 mm 11 m/S 754 mmHg 52%
    13:00 +13°C° 0 mm 11 m/S 754 mmHg 53%
    14:00 +12°C° 0 mm 11 m/S 754 mmHg 53%
    15:00 +12°C° 0 mm 11 m/S 754 mmHg 53%
    16:00 +11°C° 0 mm 11 m/S 754 mmHg 55%
    17:00 +9°C° 0 mm 11 m/S 754 mmHg 57%
    18:00 +8°C° 0 mm 11 m/S 755 mmHg 60%
    19:00 +7°C° 0 mm 10 m/S 755 mmHg 59%
    20:00 +7°C° 0 mm 10 m/S 755 mmHg 59%
    21:00 +7°C° 0 mm 10 m/S 755 mmHg 58%
    22:00 +7°C° 0 mm 10 m/S 756 mmHg 58%
    23:00 +7°C° 0 mm 9 m/S 756 mmHg 58%

    Morgen, 29 Januar, Mittwoch

    Zeit Temperatur Niederschläge Wind Luftdruck Luftfeuchtigkeit
    00:00 +6°C° 0 mm 9 m/S 756 mmHg 58%
    01:00 +6°C° 0 mm 9 m/S 756 mmHg 59%
    02:00 +6°C° 0 mm 9 m/S 756 mmHg 59%
    03:00 +6°C° 0 mm 9 m/S 756 mmHg 60%
    04:00 +6°C° 0 mm 8 m/S 756 mmHg 60%
    05:00 +6°C° 0 mm 8 m/S 756 mmHg 60%
    06:00 +6°C° 0 mm 7 m/S 756 mmHg 60%
    07:00 +8°C° 0 mm 7 m/S 756 mmHg 58%
    08:00 +9°C° 0 mm 6 m/S 756 mmHg 56%
    09:00 +10°C° 0 mm 5 m/S 756 mmHg 54%
    10:00 +12°C° 0 mm 4 m/S 756 mmHg 51%
    11:00 +13°C° 0 mm 4 m/S 756 mmHg 48%
    12:00 +14°C° 0 mm 3 m/S 756 mmHg 45%
    13:00 +15°C° 0 mm 2 m/S 756 mmHg 47%
    14:00 +15°C° 0 mm 2 m/S 756 mmHg 49%
    15:00 +15°C° 0 mm 2 m/S 756 mmHg 51%
    16:00 +13°C° 0 mm 2 m/S 757 mmHg 54%
    17:00 +12°C° 0 mm 2 m/S 758 mmHg 57%
    18:00 +9°C° 0 mm 2 m/S 758 mmHg 60%
    19:00 +9°C° 0 mm 2 m/S 758 mmHg 58%
    20:00 +9°C° 0 mm 2 m/S 759 mmHg 56%
    21:00 +9°C° 0 mm 2 m/S 759 mmHg 54%
    22:00 +9°C° 0 mm 2 m/S 759 mmHg 51%
    23:00 +9°C° 0 mm 2 m/S 759 mmHg 49%

    übermorgen, 30 Januar, Donnerstag

    Zeit Temperatur Niederschläge Wind Luftdruck Luftfeuchtigkeit
    00:00 +8°C° 0 mm 2 m/S 759 mmHg 47%
    01:00 +8°C° 0 mm 2 m/S 759 mmHg 45%
    02:00 +8°C° 0 mm 2 m/S 759 mmHg 43%
    03:00 +8°C° 0 mm 2 m/S 759 mmHg 42%
    04:00 +9°C° 0 mm 2 m/S 759 mmHg 41%
    05:00 +10°C° 0 mm 1 m/S 760 mmHg 41%
    06:00 +10°C° 0 mm 1 m/S 760 mmHg 40%
    07:00 +10°C° 0 mm 1 m/S 760 mmHg 42%
    08:00 +11°C° 0 mm 1 m/S 760 mmHg 44%
    09:00 +12°C° 0 mm 1 m/S 761 mmHg 46%
    10:00 +13°C° 0 mm 1 m/S 761 mmHg 48%
    11:00 +14°C° 0 mm 2 m/S 761 mmHg 50%
    12:00 +14°C° 0 mm 2 m/S 761 mmHg 52%
    13:00 +14°C° 0 mm 2 m/S 761 mmHg 57%
    14:00 +14°C° 0 mm 2 m/S 760 mmHg 62%
    15:00 +13°C° 0 mm 1 m/S 760 mmHg 67%
    16:00 +12°C° 0 mm 1 m/S 760 mmHg 72%
    17:00 +12°C° 0 mm 1 m/S 761 mmHg 76%
    18:00 +11°C° 0 mm 1 m/S 761 mmHg 81%
    19:00 +11°C° 0 mm 1 m/S 761 mmHg 82%
    20:00 +11°C° 0 mm 1 m/S 761 mmHg 84%
    21:00 +10°C° 0 mm 1 m/S 761 mmHg 85%
    22:00 +10°C° 0 mm 1 m/S 761 mmHg 84%
    23:00 +10°C° 0 mm 1 m/S 761 mmHg 83%

    31 Januar, Freitag

    Zeit Temperatur Niederschläge Wind Luftdruck Luftfeuchtigkeit
    00:00 +10°C° 0 mm 1 m/S 761 mmHg 81%
    01:00 +10°C° 0 mm 1 m/S 761 mmHg 81%
    02:00 +10°C° 0 mm 1 m/S 761 mmHg 81%
    03:00 +10°C° 0 mm 1 m/S 760 mmHg 81%
    04:00 +10°C° 0 mm 1 m/S 760 mmHg 81%
    05:00 +10°C° 0 mm 1 m/S 760 mmHg 82%
    06:00 +10°C° 0 mm 1 m/S 760 mmHg 82%
    07:00 +11°C° 0 mm 1 m/S 760 mmHg 80%
    08:00 +12°C° 0 mm 1 m/S 761 mmHg 77%
    09:00 +12°C° 0 mm 0 m/S 761 mmHg 75%
    10:00 +13°C° 0 mm 1 m/S 761 mmHg 75%
    11:00 +14°C° 0 mm 1 m/S 760 mmHg 76%
    12:00 +15°C° 0 mm 1 m/S 760 mmHg 76%
    13:00 +14°C° 0 mm 1 m/S 760 mmHg 78%
    14:00 +14°C° 0 mm 1 m/S 760 mmHg 80%
    15:00 +14°C° 0 mm 2 m/S 760 mmHg 82%
    16:00 +13°C° 0 mm 1 m/S 760 mmHg 84%
    17:00 +13°C° 0 mm 1 m/S 760 mmHg 87%
    18:00 +12°C° 0 mm 1 m/S 760 mmHg 89%
    19:00 +12°C° 0 mm 1 m/S 760 mmHg 88%
    20:00 +12°C° 0 mm 1 m/S 760 mmHg 88%
    21:00 +12°C° 0 mm 1 m/S 761 mmHg 87%
    22:00 +12°C° 0 mm 1 m/S 761 mmHg 87%
    23:00 +11°C° 0 mm 0 m/S 761 mmHg 87%

    1 Februar, Samstag

    Zeit Temperatur Niederschläge Wind Luftdruck Luftfeuchtigkeit
    00:00 +10°C° 0 mm 0 m/S 761 mmHg 87%
    01:00 +10°C° 0 mm 0 m/S 761 mmHg 87%
    02:00 +10°C° 0 mm 0 m/S 760 mmHg 86%
    03:00 +10°C° 0 mm 0 m/S 760 mmHg 86%
    04:00 +11°C° 0 mm 1 m/S 760 mmHg 86%
    05:00 +11°C° 0 mm 1 m/S 760 mmHg 85%
    06:00 +11°C° 0 mm 1 m/S 760 mmHg 84%
    07:00 +12°C° 0 mm 1 m/S 760 mmHg 81%
    08:00 +13°C° 0 mm 1 m/S 761 mmHg 78%
    09:00 +14°C° 0 mm 1 m/S 761 mmHg 74%
    10:00 +15°C° 0 mm 1 m/S 760 mmHg 73%
    11:00 +16°C° 0 mm 1 m/S 760 mmHg 71%
    12:00 +17°C° 0 mm 2 m/S 760 mmHg 69%
    13:00 +16°C° 0 mm 2 m/S 760 mmHg 73%
    14:00 +16°C° 0 mm 2 m/S 759 mmHg 76%
    15:00 +16°C° 0 mm 2 m/S 759 mmHg 79%
    16:00 +15°C° 0 mm 2 m/S 759 mmHg 81%
    17:00 +14°C° 0 mm 2 m/S 760 mmHg 83%
    18:00 +12°C° 0 mm 3 m/S 760 mmHg 85%
    19:00 +12°C° 0 mm 2 m/S 760 mmHg 84%
    20:00 +12°C° 0 mm 2 m/S 761 mmHg 83%
    21:00 +12°C° 0 mm 2 m/S 762 mmHg 82%
    22:00 +12°C° 0 mm 2 m/S 762 mmHg 78%
    23:00 +12°C° 0 mm 1 m/S 762 mmHg 75%

    2 Februar, Sonntag

    Zeit Temperatur Niederschläge Wind Luftdruck Luftfeuchtigkeit
    00:00 +12°C° 0 mm 1 m/S 762 mmHg 71%
    01:00 +12°C° 0 mm 1 m/S 762 mmHg 70%
    02:00 +12°C° 0 mm 1 m/S 762 mmHg 69%
    03:00 +12°C° 0 mm 1 m/S 762 mmHg 67%
    04:00 +12°C° 0 mm 1 m/S 762 mmHg 66%
    05:00 +12°C° 0 mm 1 m/S 762 mmHg 65%
    06:00 +12°C° 0 mm 1 m/S 762 mmHg 63%
    07:00 +13°C° 0 mm 1 m/S 763 mmHg 61%
    08:00 +14°C° 0 mm 1 m/S 763 mmHg 59%
    09:00 +15°C° 0 mm 1 m/S 763 mmHg 57%
    10:00 +16°C° 0 mm 1 m/S 763 mmHg 58%
    11:00 +18°C° 0 mm 1 m/S 763 mmHg 59%
    12:00 +19°C° 0 mm 1 m/S 763 mmHg 60%
    13:00 +18°C° 0 mm 1 m/S 763 mmHg 63%
    14:00 +18°C° 0 mm 1 m/S 763 mmHg 67%
    15:00 +18°C° 0 mm 1 m/S 762 mmHg 70%
    16:00 +16°C° 0 mm 1 m/S 762 mmHg 72%
    17:00 +15°C° 0 mm 1 m/S 762 mmHg 75%
    18:00 +14°C° 0 mm 1 m/S 762 mmHg 77%
    19:00 +14°C° 0 mm 1 m/S 762 mmHg 77%
    20:00 +14°C° 0 mm 1 m/S 762 mmHg 78%
    21:00 +14°C° 0 mm 1 m/S 762 mmHg 79%
    22:00 +14°C° 0 mm 2 m/S 762 mmHg 80%
    23:00 +14°C° 0 mm 2 m/S 762 mmHg 81%
    Mehr zeigen